Location: Goheenville
(40.9070°N, 79.3720°W)
Time: 17:11:31
(UTC-05:00)

Meteor 2-10 Rocket - Visible Passes

Search period start: 05 February 2016 00:00
Search period end: 15 February 2016 00:00
Orbit: 733 x 886 km, 81.2° (Epoch: 05 February)

Date Brightness Start Highest point End Pass type
(mag) Time Alt. Az. Time Alt. Az. Time Alt. Az.
05 Feb 4.6 17:59:45 10° NNE 18:03:52 23° ENE 18:08:05 10° ESE visible
05 Feb 4.8 19:41:10 10° NNW 19:46:03 42° W 19:51:06 10° SSW visible
06 Feb 4.1 19:16:43 10° NNW 19:21:52 60° W 19:27:13 10° S visible
07 Feb 6.4 06:39:38 10° ESE 06:42:38 16° E 06:45:38 10° NE visible
07 Feb 3.6 18:52:23 10° N 18:57:40 84° W 19:03:08 10° S visible
08 Feb 6.9 06:17:27 10° E 06:18:36 11° E 06:19:46 10° ENE visible
08 Feb 3.5 18:28:08 10° N 18:33:25 69° E 18:38:52 10° SSE visible
08 Feb 6.7 20:12:16 10° NW 20:14:51 14° W 20:17:27 10° WSW visible
09 Feb 3.8 18:03:59 10° N 18:09:07 49° ENE 18:14:26 10° SSE visible
09 Feb 6.3 19:47:03 10° NW 19:50:48 20° W 19:54:37 10° SW visible
10 Feb 5.8 19:22:14 10° NNW 19:26:42 28° W 19:31:17 10° SSW visible
11 Feb 5.3 06:42:44 10° SSE 06:47:16 36° E 06:51:49 10° NNE visible
11 Feb 5.2 18:57:38 10° NNW 19:02:34 39° W 19:07:40 10° SSW visible
12 Feb 6.0 06:19:07 10° SE 06:23:09 25° E 06:27:11 10° NE visible
12 Feb 4.5 18:33:10 10° NNW 18:38:24 55° W 18:43:49 10° S visible
13 Feb 6.5 05:55:50 10° SE 05:59:03 17° E 06:02:18 10° NE visible
13 Feb 3.9 18:08:49 10° NNW 18:14:12 78° W 18:19:47 10° S visible
14 Feb 6.8 05:33:13 10° ESE 05:35:01 12° E 05:36:49 10° ENE visible
14 Feb 6.9 19:28:59 10° WNW 19:31:20 13° W 19:33:45 10° WSW visible
